Regional Weather Roundup
Issued by NWS

Home | Current Version | Previous Version | Text Only | Print | Product List | Glossary Off
Versions: 1 2 3 4 5 6 7 8 9 10 11 12 13 14 15 16 17 18 19 20 21 22 23 24 25 26 27 28 29 30 31 32 33 34 35 36 37 38 39 40 41 42 43 44 45 46 47 48 49 50

445
ASUS43 KBIS 260810
RWRND

NORTH DAKOTA REGIONAL WEATHER ROUNDUP
NATIONAL WEATHER SERVICE BISMARCK ND
300 AM CDT FRI MAY 26 2017

NOTE: "FAIR" INDICATES FEW OR NO CLOUDS BELOW 12,000 FEET WITH NO
SIGNIFICANT WEATHER AND/OR OBSTRUCTIONS TO VISIBILITY.


NDZ001>003-009>011-017-260900-
NORTHWEST NORTH DAKOTA

CITY           SKY/WX    TMP DP  RH WIND       PRES   REMARKS
WILLISTON      CLOUDY    51  42  71 W12       29.66R
MINOT          FAIR      53  44  71 SW13      29.59R
MINOT AFB      CLEAR     51  44  79 W16       29.57R
$$

NDZ018>021-031>035-040>046-260900-
SOUTHWEST NORTH DAKOTA

CITY           SKY/WX    TMP DP  RH WIND       PRES   REMARKS
BISMARCK       FAIR      51  44  77 SW7       29.67R
DICKINSON      CLOUDY    49  38  65 W14       29.69S
GARRISON         N/A     50  43  77 W15       29.63R
HETTINGER ARPT CLEAR     43  39  86 W12       29.75R
$$

NDZ004>008-012>016-024-026-027-054-260900-
NORTHEAST NORTH DAKOTA

CITY           SKY/WX    TMP DP  RH WIND       PRES   REMARKS
GRAND FORKS    CLEAR     48  47  96 SW6       29.57R
GRND FRKS AFB  CLEAR     51  46  84 SW7       29.57R
DEVILS LAKE    FAIR      53  45  74 SW10      29.59R
$$

NDZ022-023-025-028>030-036>039-047>053-260900-
SOUTHEAST NORTH DAKOTA

CITY           SKY/WX    TMP DP  RH WIND       PRES   REMARKS
FARGO          CLEAR     55  53  93 SW6       29.59R
JAMESTOWN      FAIR      50  44  80 W5        29.62R
$$





USA.gov is the U.S. government's official web portal to all federal, state and local government web resources and services.